Location: Unspecified
(42.2730°N, 83.7130°W)
Time: 13:55:03
(UTC+00:00)

Cosmos 372 Rocket - Pass Details

Date: 14 December 2025
Orbit: 734 x 761 km, 74.1° (Epoch: 17 January)

Event Time Altitude Azimuth Distance (km) Brightness Sun altitude
Rises 23:04:14 0° 193° (SSW) 3,187 7.7 -10.9°
Reaches altitude 10° 23:06:36 10° 192° (SSW) 2,263 6.9 -11.4°
Maximum altitude 23:11:43 75° 107° (ESE) 775 3.9 -12.2°
Drops below altitude 10° 23:16:49 10° 23° (NNE) 2,261 6.0 -13.1°
Enters shadow 23:17:27 - 23° (NNE) 2,503 6.3 -13.2°
